{"data":{"norad_id":62262,"intl_designator":"2024-231V","name":"STARLINK-32632","alt_names":[],"object_type":"PAYLOAD","status":"ACTIVE","operator":null,"country":"US","launch_date":"2024-12-05","launch_site_code":"AFWTR","launch_vehicle":null,"mission":null,"orbit_class":"UNKNOWN","rcs_meters":null,"size_class":null,"mass_kg":null,"dimensions":null,"purposes":["comms"],"wikipedia_slug":null,"has_3d_model":false,"image_url":null,"decayed_at":null,"tle_current":{"epoch":"2026-09-21T16:53:46.175424Z","epoch_age_seconds":73874,"freshness":"FRESH","line1":"1 62262U 24231V   26264.70400666  .00025060  00000+0  81638-3 0  9990","line2":"2 62262  53.1597  28.1269 0001024  81.5509 278.5608 15.31707946101790","mean_motion":15.31707946,"eccentricity":0.0001024,"inclination_deg":53.1597,"raan_deg":28.1269,"arg_perigee_deg":81.5509,"mean_anomaly_deg":278.5608,"bstar":0.00081638,"rev_number":10179,"period_min":94.012700251409,"perigee_km":470.01498613671,"apogee_km":471.41763129434,"semimajor_km":6848.8533087155,"source":"CELESTRAK","updated_at":"2026-09-22T09:00:49.565311Z"}}}